DLH7828 EKCH-EDDF

Flight info

Callsign DLH7828
Flight time N/A
Altitude 38000
Route NEXEN T503 GIMRU DCT MICOS DCT RIMET T157 KERAX KERAX5D
Aircraft A320/M-SDE2E3FGIJ1LORWXYZ/HB1

Departure

Time 2026-05-01 14:11
Airport Copenhagen Kastrup Airport (EKCH)

Arrival

Time N/A
Airport Frankfurt Main Airport (EDDF)
Time Latitude Longitude Altitude Speed Heading
2026-05-01 13:40 55.62741 12.64036 24 ft 0 kts 33°
2026-05-01 14:00 55.62730 12.64023 25 ft 4 kts 38°
2026-05-01 14:01 55.62709 12.63992 25 ft 4 kts 40°
2026-05-01 14:01 55.62689 12.63971 28 ft 4 kts 351°
2026-05-01 14:01 55.62672 12.63980 24 ft 4 kts 281°
2026-05-01 14:01 55.62667 12.64023 25 ft 3 kts 302°
2026-05-01 14:02 55.62655 12.64058 27 ft 4 kts 303°
2026-05-01 14:02 55.62641 12.64094 27 ft 1 kts 303°
2026-05-01 14:02 55.62628 12.64128 26 ft 4 kts 303°
2026-05-01 14:02 55.62625 12.64137 27 ft 0 kts 303°
2026-05-01 14:05 55.62634 12.64113 28 ft 5 kts 303°
2026-05-01 14:05 55.62664 12.64033 26 ft 10 kts 303°
2026-05-01 14:05 55.62703 12.63918 24 ft 10 kts 292°
2026-05-01 14:06 55.62671 12.63835 24 ft 8 kts 211°
2026-05-01 14:06 55.62625 12.63785 24 ft 7 kts 207°
2026-05-01 14:06 55.62584 12.63769 24 ft 0 kts 180°
2026-05-01 14:07 55.62579 12.63769 24 ft 3 kts 180°
2026-05-01 14:08 55.62425 12.63892 21 ft 18 kts 129°
2026-05-01 14:08 55.62351 12.64092 21 ft 21 kts 123°
2026-05-01 14:08 55.62269 12.64314 22 ft 21 kts 123°
2026-05-01 14:08 55.62198 12.64345 22 ft 11 kts 205°
2026-05-01 14:09 55.62140 12.64295 23 ft 8 kts 206°
2026-05-01 14:09 55.62095 12.64256 24 ft 6 kts 206°
2026-05-01 14:09 55.62059 12.64224 25 ft 5 kts 206°
2026-05-01 14:09 55.62024 12.64196 24 ft 8 kts 205°
2026-05-01 14:10 55.61951 12.64137 26 ft 15 kts 205°
2026-05-01 14:10 55.61846 12.64073 24 ft 16 kts 182°
2026-05-01 14:10 55.61729 12.64083 26 ft 18 kts 175°
2026-05-01 14:10 55.61623 12.64056 27 ft 15 kts 210°
2026-05-01 14:11 55.61509 12.63891 26 ft 41 kts 221°
2026-05-01 14:11 55.60351 12.62097 30 ft 168 kts 220°
2026-05-01 14:11 55.59468 12.60713 669 ft 169 kts 220°
2026-05-01 14:12 55.58589 12.59354 1476 ft 167 kts 223°
2026-05-01 14:12 55.57712 12.58007 2252 ft 166 kts 223°
2026-05-01 14:12 55.56795 12.56614 2689 ft 184 kts 220°
2026-05-01 14:12 55.55694 12.55178 3044 ft 209 kts 217°
2026-05-01 14:13 55.54429 12.53628 3441 ft 234 kts 216°
2026-05-01 14:13 55.53511 12.52516 3759 ft 250 kts 216°
2026-05-01 14:13 55.51539 12.50134 4866 ft 261 kts 215°
2026-05-01 14:13 55.50034 12.48310 5826 ft 264 kts 215°
2026-05-01 14:14 55.48517 12.46468 6813 ft 266 kts 215°
2026-05-01 14:14 55.46987 12.44609 7723 ft 269 kts 215°
2026-05-01 14:14 55.45439 12.42726 8603 ft 272 kts 215°
2026-05-01 14:14 55.43870 12.40815 9494 ft 276 kts 215°
2026-05-01 14:15 55.42275 12.38873 10300 ft 285 kts 215°
2026-05-01 14:15 55.40578 12.36805 10607 ft 308 kts 215°
2026-05-01 14:15 55.38783 12.34618 11193 ft 318 kts 215°
2026-05-01 14:15 55.36945 12.32378 11956 ft 323 kts 215°
2026-05-01 14:16 55.35110 12.30147 12734 ft 327 kts 215°
2026-05-01 14:16 55.33226 12.27861 13535 ft 331 kts 215°
2026-05-01 14:16 55.31319 12.25556 14304 ft 335 kts 215°
2026-05-01 14:16 55.29391 12.23226 14977 ft 339 kts 215°
2026-05-01 14:17 55.27440 12.20866 15680 ft 342 kts 215°
2026-05-01 14:17 55.25470 12.18488 16371 ft 345 kts 215°
2026-05-01 14:17 55.23480 12.16092 17025 ft 350 kts 215°
2026-05-01 14:17 55.21459 12.13663 17660 ft 354 kts 215°
2026-05-01 14:18 55.19420 12.11198 18302 ft 358 kts 216°
2026-05-01 14:18 55.17354 12.08609 18909 ft 363 kts 217°
2026-05-01 14:18 55.15309 12.05978 19461 ft 367 kts 217°
2026-05-01 14:18 55.13950 12.04215 19847 ft 369 kts 217°
2026-05-01 14:19 55.11884 12.01529 20433 ft 371 kts 217°
2026-05-01 14:19 55.09798 11.98830 21031 ft 374 kts 217°
2026-05-01 14:19 55.07694 11.96128 21634 ft 377 kts 217°
2026-05-01 14:19 55.05570 11.93421 22225 ft 380 kts 216°
2026-05-01 14:20 55.03427 11.90697 22798 ft 383 kts 216°
2026-05-01 14:20 54.99083 11.85196 23953 ft 389 kts 216°
2026-05-01 14:20 54.96887 11.82417 24432 ft 392 kts 216°
2026-05-01 14:21 54.94670 11.79619 24890 ft 395 kts 216°
2026-05-01 14:21 54.92434 11.76806 25317 ft 398 kts 216°
2026-05-01 14:21 54.90183 11.73975 25759 ft 401 kts 216°
2026-05-01 14:22 54.85637 11.68243 26584 ft 407 kts 216°
2026-05-01 14:22 54.83330 11.65348 26992 ft 410 kts 216°
2026-05-01 14:22 54.81010 11.62446 27403 ft 413 kts 216°
2026-05-01 14:22 54.78672 11.59524 27779 ft 416 kts 216°
2026-05-01 14:23 54.76321 11.56584 28155 ft 419 kts 216°
2026-05-01 14:23 54.73951 11.53624 28535 ft 422 kts 216°
2026-05-01 14:23 54.71560 11.50646 28904 ft 424 kts 215°
2026-05-01 14:23 54.69156 11.47657 29246 ft 428 kts 215°
2026-05-01 14:24 54.66730 11.44647 29593 ft 431 kts 215°
2026-05-01 14:24 54.64288 11.41616 29936 ft 434 kts 215°
2026-05-01 14:24 54.61829 11.38564 30287 ft 436 kts 215°
2026-05-01 14:24 54.59361 11.35510 30598 ft 438 kts 215°
2026-05-01 14:25 54.56882 11.32451 30970 ft 438 kts 215°
2026-05-01 14:25 54.54400 11.29399 31288 ft 439 kts 215°
2026-05-01 14:25 54.51906 11.26350 31572 ft 441 kts 214°
2026-05-01 14:25 54.49398 11.23301 31875 ft 441 kts 214°
2026-05-01 14:26 54.46889 11.20259 32216 ft 442 kts 214°
2026-05-01 14:26 54.41868 11.14188 32935 ft 440 kts 214°
2026-05-01 14:26 54.39368 11.11166 33318 ft 439 kts 214°
2026-05-01 14:27 54.36871 11.08154 33703 ft 438 kts 214°
2026-05-01 14:27 54.34375 11.05146 34089 ft 437 kts 214°
2026-05-01 14:27 54.31794 11.02427 34463 ft 435 kts 206°
2026-05-01 14:28 54.26081 10.99240 35059 ft 432 kts 188°
2026-05-01 14:28 54.23113 10.98423 35327 ft 432 kts 189°
2026-05-01 14:28 54.20146 10.97595 35607 ft 432 kts 189°
2026-05-01 14:28 54.17179 10.96761 35861 ft 432 kts 189°
2026-05-01 14:29 54.14207 10.95924 36104 ft 433 kts 189°
2026-05-01 14:29 54.11239 10.95090 36367 ft 432 kts 189°
2026-05-01 14:30 54.02349 10.92581 37100 ft 432 kts 189°
2026-05-01 14:30 53.99386 10.91752 37315 ft 432 kts 190°
2026-05-01 14:30 53.96422 10.90930 37543 ft 432 kts 190°
2026-05-01 14:31 53.90497 10.89289 37952 ft 432 kts 190°
2026-05-01 14:31 53.84577 10.87646 37957 ft 430 kts 190°
2026-05-01 14:32 53.78680 10.86006 37957 ft 430 kts 190°
2026-05-01 14:32 53.72816 10.84386 37957 ft 430 kts 190°
2026-05-01 14:33 53.66874 10.82748 37957 ft 430 kts 190°
2026-05-01 14:33 53.60970 10.81132 37955 ft 430 kts 189°
2026-05-01 14:34 53.55066 10.79518 37958 ft 430 kts 190°
2026-05-01 14:34 53.49160 10.77913 37955 ft 430 kts 189°
2026-05-01 14:35 53.43291 10.76323 37953 ft 430 kts 190°
2026-05-01 14:35 53.37347 10.74705 37954 ft 430 kts 190°
2026-05-01 14:36 53.31476 10.73103 37950 ft 430 kts 190°
2026-05-01 14:36 53.25567 10.71501 37952 ft 430 kts 189°
2026-05-01 14:37 53.19655 10.69917 37943 ft 430 kts 189°
2026-05-01 14:37 53.13742 10.68328 37944 ft 430 kts 189°
2026-05-01 14:37 53.10780 10.67533 38075 ft 431 kts 189°
2026-05-01 14:38 53.07823 10.66743 38294 ft 431 kts 190°
2026-05-01 14:38 53.01892 10.65161 38347 ft 431 kts 190°
2026-05-01 14:39 52.95971 10.63591 38350 ft 431 kts 190°
2026-05-01 14:39 52.90049 10.62019 38350 ft 431 kts 190°
2026-05-01 14:40 52.84124 10.60451 38353 ft 431 kts 189°
2026-05-01 14:40 52.78206 10.58884 38353 ft 431 kts 189°
2026-05-01 14:41 52.72284 10.57332 38343 ft 431 kts 189°
2026-05-01 14:41 52.66329 10.55764 38351 ft 438 kts 189°
2026-05-01 14:42 52.60256 10.54169 38352 ft 446 kts 190°
2026-05-01 14:42 52.54084 10.52557 38353 ft 452 kts 189°
2026-05-01 14:43 52.47839 10.50940 38351 ft 456 kts 189°
2026-05-01 14:43 52.41569 10.49315 38355 ft 457 kts 189°
2026-05-01 14:44 52.35293 10.47686 38355 ft 456 kts 189°
2026-05-01 14:44 52.25876 10.45259 38354 ft 457 kts 189°
2026-05-01 14:45 52.16486 10.42852 38354 ft 458 kts 189°
2026-05-01 14:46 52.10193 10.41235 38201 ft 458 kts 189°
2026-05-01 14:46 52.03947 10.39640 37099 ft 453 kts 189°